Location: De Lemmer
(52.8462°N, 5.7091°E)
Time: 11:33:29
(UTC+00:00)

Meteor 1-24 Rocket - Pass Details

Date: 18 September 2020
Orbit: 790 x 927 km, 81.2° (Epoch: 30 October)

Event Time Altitude Azimuth Distance (km) Brightness Sun altitude
Rises 20:47:05 0° 343° (NNW) 3,342 7.7 -25.8°
Reaches altitude 10° 20:49:30 10° 338° (NNW) 2,421 6.9 -26.1°
Maximum altitude 20:54:45 49° 265° (W) 1,071 4.4 -26.7°
Enters shadow 20:56:31 36° 217° (SW) 1,306 4.5 -26.9°
